Weather observations for the past three days for
Alice, Alice International Airport
Imperial (Metric)
Date Time (cdt) Wind (mph) Vis. (mi.) Weather Sky Cond. Temperature (ºF) Relative Humidity Wind Chill (°F) Heat Index (°F) Pressure Precipitation (in)
Air Dwpt 6 hour altimeter (in) sea level (mb) 1 hr 3 hr 6 hr
Max. Min.
15 21:53 SE 8 10.00 Fair CLR 82 72 72% 87 29.83 1009.9
15 20:53 SE 12 10.00 Fair CLR 84.9 71.1 63% 90 29.82 1009.4
15 19:53 SE 17 G 24 10.00 Fair CLR 88 73 61% 96 29.8 1009.0
15 18:53 SE 15 G 25 10.00 Fair CLR 91.9 71.1 99 91.9 51% 99 29.79 1008.6
15 17:53 SE 16 G 25 10.00 Fair CLR 95 69.1 43% 101 29.78 1008.2
15 16:53 E 16 10.00 Fair CLR 97 70 42% 104 29.79 1008.6
15 15:53 E 12 G 28 10.00 A Few Clouds FEW060 96.1 70 43% 103 29.81 1009.1
15 14:53 SE 12 G 22 10.00 A Few Clouds FEW055 FEW090 99 70 39% 106 29.83 1009.6
15 13:53 Calm 10.00 Partly Cloudy SCT050 SCT090 95 71.1 46% 102 29.84 1010.2
15 12:53 Vrbl 3 10.00 A Few Clouds FEW044 FEW060 96.1 72 96.1 75 46% 105 29.88 1011.5
15 11:53 Calm 10.00 Mostly Cloudy SCT041 BKN049 91.9 72 52% 100 29.89 1011.9
15 10:53 S 7 10.00 Partly Cloudy FEW040 SCT070 SCT085 90 73 58% 98 29.9 1012.2
15 09:53 Vrbl 7 10.00 Partly Cloudy FEW022 SCT028 88 75 66% 98 29.91 1012.4
15 08:53 S 3 10.00 Partly Cloudy SCT022 84 75.9 77% 93 29.91 1012.5
15 07:53 Calm 10.00 Mostly Cloudy SCT020 BKN027 BKN033 82 77 85% 90 29.9 1012.1
15 06:53 Calm 7.00 Fair CLR 75 73.9 78.1 75 96% 73 29.89 1011.7
15 05:53 Calm 7.00 Fair CLR 75.9 73.9 94% 75 29.87 1011.3
15 04:53 S 5 9.00 Fair CLR 77 75 94% 78 29.87 1011.1
15 03:53 SE 3 10.00 Fair CLR 77 75 94% 78 29.87 1011.3
15 02:53 SE 6 10.00 Fair CLR 77 75 94% 78 29.89 1011.7
15 01:53 E 6 10.00 Fair CLR 77 73.9 90% 78 29.91 1012.3
15 00:53 E 3 10.00 Fair CLR 77 73.9 91.9 77 90% 78 29.91 1012.6
14 23:53 Calm 10.00 Fair CLR 78.1 73 85% 81 29.91 1012.5
14 22:53 SE 6 10.00 Fair CLR 80.1 73 79% 84 29.89 1011.9
14 21:53 SE 7 10.00 Fair CLR 82.9 73 72% 89 29.88 1011.5
14 20:53 SE 9 10.00 Fair CLR 84.9 71.1 63% 90 29.86 1011.0
14 19:53 E 15 G 22 10.00 Fair CLR 89.1 69.1 52% 94 29.85 1010.6
14 18:53 E 14 G 23 10.00 Fair CLR 93 70 100.9 93 47% 99 29.84 1010.1
14 17:53 E 18 G 28 10.00 Fair CLR 95 70 44% 101 29.82 1009.6
14 16:53 E 16 G 25 10.00 Partly Cloudy SCT060 95 70 44% 101 29.83 1009.8
14 15:53 E 10 10.00 A Few Clouds FEW065 97 69.1 40% 103 29.84 1010.0
14 14:53 NE 7 G 16 10.00 Partly Cloudy FEW070 SCT085 98.1 69.1 39% 104 29.86 1010.7
14 13:53 E 12 10.00 Partly Cloudy SCT050 98.1 72 43% 107 29.88 1011.4
14 12:53 E 6 10.00 Mostly Cloudy BKN049 96.1 71.1 97 75 44% 104 29.89 1012.0
14 11:53 Vrbl 3 10.00 Partly Cloudy SCT039 93 72 50% 101 29.91 1012.5
14 10:53 Vrbl 5 10.00 Partly Cloudy SCT034 91 73 56% 100 29.92 1013.0
14 09:53 Calm 10.00 A Few Clouds FEW044 86 75 70% 95 29.94 1013.6
14 08:53 Calm 10.00 Fair CLR 84.9 75.9 75% 94 29.94 1013.5
14 07:53 Calm 10.00 A Few Clouds FEW023 81 77 88% 88 29.93 1013.1
14 06:53 Calm 8.00 Fair CLR 75 73.9 78.1 75 96% 73 29.91 1012.5
14 05:53 Calm 10.00 Fair CLR 77 75 94% 78 29.89 1012.0
14 04:53 E 3 10.00 Fair CLR 75.9 73.9 94% 75 29.88 1011.5
14 03:53 E 3 10.00 Fair CLR 75.9 73.9 94% 75 29.89 1011.7
14 02:53 Calm 10.00 A Few Clouds FEW023 78.1 75 90% 81 29.89 1011.8
14 01:53 SE 5 10.00 A Few Clouds FEW024 77 73.9 90% 78 29.89 1011.7
14 00:53 SE 3 10.00 Fair CLR 78.1 73.9 93.9 78.1 87% 81 29.89 1011.9
13 23:53 SE 3 10.00 Fair CLR 80.1 75 85% 85 29.9 1012.1
13 22:53 SE 6 10.00 Fair CLR 82 75 79% 89 29.89 1011.9
13 21:53 SE 8 10.00 Fair CLR 84 73.9 72% 91 29.88 1011.5
13 20:53 SE 12 10.00 Fair CLR 86 73.9 67% 94 29.86 1010.9
13 19:53 SE 15 G 23 10.00 Fair CLR 90 72 56% 97 29.84 1010.3
13 18:53 E 16 G 23 10.00 A Few Clouds FEW050 93.9 73 100 93 51% 103 29.83 1009.8
13 17:53 E 12 10.00 A Few Clouds FEW050 97 73 46% 107 29.83 1009.7
13 16:53 NE 10 10.00 Partly Cloudy FEW075 SCT095 99 73 43% 110 29.83 1009.8
13 15:53 E 13 G 16 10.00 Mostly Cloudy BKN060 BKN110 99 73.9 45% 111 29.84 1010.1
13 14:53 SE 8 10.00 Mostly Cloudy BKN060 BKN080 97 71.1 43% 105 29.86 1010.8
13 13:53 NE 3 10.00 Mostly Cloudy SCT055 BKN075 98.1 72 43% 107 29.88 1011.4
13 12:53 SW 5 10.00 A Few Clouds FEW047 95 73 96.1 77 49% 105 29.9 1012.2
13 11:53 SW 7 10.00 Partly Cloudy FEW044 SCT090 93 73.9 54% 103 29.92 1012.7
13 10:53 Vrbl 3 6.00 Partly Cloudy with Haze FEW033 SCT085 90 73.9 59% 99 29.92 1013.0
13 09:53 SW 6 0.00 NULL NULL 86 75.9 72% 96 29.93 1013.3
13 08:53 Calm 10.00 Partly Cloudy FEW080 SCT100 82.9 77 82% 92 29.92 1013.0
13 07:53 S 3 10.00 Partly Cloudy SCT020 80.1 78.1 94% 86 29.9 1012.1
13 05:53 Calm 5.00 Fog/Mist FEW100 77 75 94% 78 29.86 1011.0
13 04:53 E 3 9.00 Partly Cloudy SCT100 77 75.9 96% 78 29.86 1010.7
13 03:53 SE 3 10.00 Fair CLR 77 75 94% 78 29.86 1010.6
13 02:53 SE 3 10.00 A Few Clouds FEW020 78.1 75.9 93% 81 29.86 1010.8
13 01:53 SE 3 10.00 A Few Clouds FEW019 77 75 94% 78 29.88 1011.4
13 00:53 Calm 10.00 Fair CLR 79 75.9 87.1 79 90% 83 29.88 1011.7
12 23:53 Calm 10.00 Fair CLR 79 75.9 90% 83 29.89 1012.0
12 22:53 SE 5 10.00 Fair CLR 81 75.9 85% 87 29.89 1011.8
Date Time (cdt) Wind (mph) Vis. (mi.) Weather Sky Cond. Air Dwpt Max. Min. Relative Humidity Wind Chill (°F) Heat Index (°F) altimeter (in) sea level (mb) 1 hr 3 hr 6 hr
6 hour
Temperature (ºF) Pressure Precipitation (in)